Location: Mercogliano
(40.9167°N, 14.7333°E)
Time: 04:22:21
(UTC+00:00)

SJ-11-01 - Pass Details

Date: 18 September 2020
Orbit: 684 x 701 km, 98.0° (Epoch: 25 October)

Event Time Altitude Azimuth Distance (km) Brightness Sun altitude
Rises 18:01:17 0° 165° (SSE) 3,066 7.3 -11.5°
Reaches altitude 10° 18:03:32 10° 164° (SSE) 2,151 6.6 -11.9°
Maximum altitude 18:08:15 86° 79° (E) 703 4.3 -12.7°
Drops below altitude 10° 18:12:59 10° 348° (NNW) 2,156 7.2 -13.6°
Sets 18:15:14 0° 348° (NNW) 3,074 8.0 -14.0°
